Regional Weather Roundup
Issued by NWS Green Bay, WI

Home | Current Version | Previous Version | Graphics & Text | Print | Product List | Glossary Off
Versions: 1 2 3 4 5 6 7 8 9 10 11 12 13 14 15 16 17 18 19 20 21 22 23 24 25 26 27 28 29 30 31 32 33 34 35 36 37 38 39 40 41 42 43 44 45 46 47 48 49 50

000
ASUS43 KGRB 292011
RWRGRB

NORTH-CENTRAL AND NORTHEAST WISCONSIN REGIONAL WEATHER ROUNDUP
NATIONAL WEATHER SERVICE GREEN BAY WI
300 PM CDT THU SEP 29 2016

WIZ005-009-010>012-018-019-292100-
NORTH CENTRAL WISCONSIN

CITY           SKY/WX    TMP DP  RH WIND       PRES   REMARKS
IRONWOOD       CLOUDY    61  54  77 N8        30.48S
MANITOWISH WTR SUNNY     63  53  69 NE7       30.45F
ARBOR VITAE    SUNNY     64  54  69 N7        30.44F
EAGLE RIVER    MOSUNNY   66  51  60 N8        30.43F
LAND O LAKES   MOSUNNY   62  53  72 N9        30.47F
RHINELANDER    SUNNY     68  54  60 NE8       30.43F
PHILLIPS       SUNNY     65  52  62 N7        30.42F
ANTIGO         SUNNY     69  51  53 NE13G20   30.40F
TOMAHAWK       SUNNY     68  51  53 NE5       30.42F
MERRILL          N/A     70  51  51 E8        30.40F
$$

WIZ013-073-292100-
NORTHEAST WISCONSIN

CITY           SKY/WX    TMP DP  RH WIND       PRES   REMARKS
IRON MOUNTAIN  SUNNY     72  49  44 NE9       30.40S
MARINETTE      SUNNY     67  57  70 E15       30.37F
OCONTO         SUNNY     70  53  55 NE9G17    30.36S
$$

WIZ017-030-035>037-045-292100-
CENTRAL WISCONSIN

CITY           SKY/WX    TMP DP  RH WIND       PRES   REMARKS
MEDFORD        SUNNY     69  49  49 NE8       30.40S
WAUSAU         SUNNY     71  49  45 NE10      30.37F
MOSINEE        MOSUNNY   70  52  52 N8G17     30.39F
MARSHFIELD     SUNNY     71  50  47 NE9       30.37F
WISC RAPIDS    MOSUNNY   74  52  46 NE9       30.37F
STEVENS POINT  SUNNY     70  47  44 NE6       30.36F
WAUPACA        MOSUNNY   73  49  43 NE13G24   30.35S
SHAWANO        PTSUNNY   73  53  50 NE10      30.36F
CLINTONVILLE   SUNNY     72  50  46 E15       30.35F
WAUTOMA        SUNNY     72  49  44 NE15G24   30.34S
$$

WIZ038-039-048-051-292100-
FOX VALLEY

CITY           SKY/WX    TMP DP  RH WIND       PRES   REMARKS
NWS GREEN BAY  SUNNY     69  55  60 NE22G30   30.34F
APPLETON       MOSUNNY   70  45  40 NE21G30   30.33S
OSHKOSH        SUNNY     69  55  60 NE18G29   30.32S
FOND DU LAC    SUNNY     70  57  63 NE20      30.31F
$$

WIZ022-050-052-292100-
EAST CENTRAL WISCONSIN

CITY           SKY/WX    TMP DP  RH WIND       PRES   REMARKS
EPHRAIM        FAIR      68  50  51 NE10G22   30.36S
WASHINGTON ISL MOCLDY    66  55  67 NE13      30.36F
STURGEON BAY   SUNNY     68  52  56 NE21      30.35F
MANITOWOC      PTSUNNY   66  58  75 NE14G21   30.32F
SHEBOYGAN      MOSUNNY   65  58  78 NE26G32   30.30F
$$

LMZ563-521-522-541>543-292100-
LAKESHORE

STATION/POSITION TIME  TEMP    WIND        PRES    VSBY  WAVE
                       AIR SEA DIR/SP/G                  HT/PER
                 (UTC) (F)     (DEG/KT/KT) (MB)    (MI)  (FT/S)
SHEBOYGAN LKSHOR 2000   61      10/ 24/ 26 1025.4F
KEWAUNEE LKSHORE 1900   63      20/  7/ 11 1027.0S
NORTHPORT PIER   1900   66      50/ 11/ 16 1028.1F
N MID LAKE BUOY  1950   63 66   40/ 16/ 19 1027.4F         3/ 5
S GREEN BAY BUOY 2000   64 63   40/ 17/ 21 1027.1F
SISTER BAY LKSHO 1908   75      10/ 10/ 17   N/A
CHAMBERS ISLAND  1900   64      30/ 11/ 14 1028.1F
MENOMINEE LKSHOR 1900   62      40/ 14/ 16 1027.5F
$$




USA.gov is the U.S. government's official web portal to all federal, state and local government web resources and services.